Cloud_Cover
65 100 100 96 8 33 100 100 100 100 100 100 87 81 100 5 5 5 16 5 5 5 5 5 5 5 8 14 45 5 3 2 10 9 5 1 5 6 14 0 3 93 100
100 100 100 100 100 100 100 100 100 100 100 100 100 100 92 5 11 37 5 5 8 5 5 5 5 5 38 86 3 6 7 14 78 99 46 6 3 49 0 11 49 26 100
100 100 100 100 96 92 70 100 100 100 100 100 91 26 6 28 64 5 5 90 18 9 12 37 27 17 4 5 5 16 81 35 32 100 100 100 48 68 7 15 98 47 100
100 95 100 100 100 100 100 100 100 100 100 50 26 39 5 49 11 59 14 64 16 52 62 22 59 5 5 5 10 21 70 79 98 93 100 100 100 100 87 14 20 73 100
100 100 100 88 11 53 66 97 99 38 5 8 21 43 51 20 71 49 71 55 10 11 5 5 5 5 5 5 35 44 50 97 100 100 100 100 100 100 100 100 59 26 100
100 100 100 100 100 86 40 9 8 34 20 18 82 94 81 91 97 97 88 5 31 5 5 5 5 5 5 5 5 26 74 100 100 100 100 100 100 100 100 100 100 100 100
100 100 100 100 100 100 100 100 99 54 42 94 100 100 100 100 100 57 18 5 5 10 5 5 5 5 5 88 5 3 10 56 100 100 100 100 100 100 100 100 100 100 100
100 100 100 100 100 100 100 100 100 100 100 100 100 100 100 57 62 78 44 6 6 5 5 10 12 36 5 5 5 5 3 19 100 100 100 100 100 100 100 100 100 100 100
100 100 100 100 100 100 100 100 100 100 100 100 100 100 87 99 100 100 65 57 24 86 67 100 38 87 6 5 5 5 5 3 89 100 100 100 100 100 100 100 100 100 100
100 100 100 100 100 100 100 100 100 100 100 100 100 96 100 100 100 100 84 100 99 70 100 100 86 100 59 5 5 5 5 5 29 94 100 100 100 100 100 100 100 100 100
100 100 100 100 100 100 100 100 100 100 100 100 100 100 100 100 100 100 100 100 100 100 100 100 98 38 5 5 5 5 5 5 5 51 100 100 100 100 100 100 100 100 100
100 100 100 100 100 100 100 100 100 100 100 100 100 100 100 100 100 100 100 100 100 100 100 93 54 5 5 5 5 50 5 5 5 5 90 98 100 100 100 100 100 100 100
100 100 100 100 100 100 100 100 100 100 100 100 100 100 100 100 100 100 97 100 100 96 95 48 5 5 5 15 79 100 5 5 38 100 100 100 98 100 100 100 100 100 100
98 100 100 100 100 100 100 100 100 100 100 100 100 100 100 100 100 98 100 100 100 100 7 5 5 5 5 84 100 100 34 20 97 94 88 99 100 100 100 100 100 100 100
100 100 100 100 100 100 100 100 100 100 100 100 100 100 100 100 100 100 100 100 100 28 5 4 5 5 38 99 100 100 73 98 100 89 84 100 100 100 100 100 100 100 100
100 100 100 100 100 100 100 100 100 100 100 100 100 100 100 100 100 100 100 100 9 6 9 5 26 78 94 100 100 100 89 100 100 95 100 100 100 100 100 100 100 100 100
100 100 100 100 100 100 100 100 100 100 100 100 100 100 100 100 100 100 69 83 76 55 66 80 85 98 97 100 99 100 92 100 98 100 100 100 100 100 100 100 100 100 100
100 100 100 100 100 100 100 100 100 100 100 100 100 100 100 100 56 66 65 76 70 61 79 94 96 97 100 100 87 93 100 100 99 97 100 100 100 100 100 100 100 100 100
100 100 100 100 100 100 100 100 100 100 100 100 100 100 77 47 34 41 61 83 90 98 98 93 96 100 100 100 81 96 100 100 100 100 100 91 100 100 100 100 100 100 100
100 100 100 100 100 100 100 100 100 100 100 100 100 90 8 5 5 5 59 90 98 94 88 100 100 95 99 100 100 100 100 100 94 100 99 90 90 97 100 100 100 100 100
100 100 100 100 100 100 100 100 100 100 100 100 43 5 5 0 2 5 5 36 74 91 100 100 100 100 99 82 64 99 100 100 99 100 100 100 92 72 68 71 81 99 100
100 100 100 100 100 100 100 100 100 100 100 100 33 33 5 5 5 21 38 30 53 84 81 75 74 81 100 91 97 60 22 28 79 100 100 100 100 82 60 60 58 76 86
100 100 100 100 100 100 100 100 100 100 100 100 92 70 5 5 5 84 99 95 95 93 71 5 14 93 100 99 100 99 50 15 85 82 59 45 58 75 60 18 50 72 77
100 100 100 100 100 100 100 100 100 100 100 100 78 30 40 57 57 97 92 96 97 100 96 89 80 98 100 100 100 100 90 15 29 26 5 5 22 5 5 43 5 5 5
100 100 100 100 100 100 100 100 100 100 100 100 90 5 34 82 100 91 100 100 100 100 100 99 100 89 98 98 100 99 100 100 60 24 21 5 5 5 5 5 5 5 5
100 100 100 100 100 100 100 100 100 100 100 56 18 5 5 70 95 94 100 100 100 84 80 90 90 88 89 11 5 5 5 5 5 5 5 5 5 5 5 5 5 5 4